TITAN 3C TRANSTAGE DEB, 1722

Orbit data source: Space-Track

TITAN 3C TRANSTAGE DEB, 1722 is space debris in LEO originally from a launch on Fri, 15 Oct 1965 UTC launched from the Air Force Eastern Test Range (AFETR). Debris objects in space refer to the collection of defunct objects orbiting the Earth. Examples of debris include non-operational satellites, rocket bodies, and fragments generated from explosions, collisions, or faulty payload assembly.

Loading next visibility...
Identifier
1722, 1965-082CD
Orbit
LEO
Country
Flag of USUS
Related business
Manufacturer
Unknown
Mission
Spacecraft
Bus & Motor
Unknown
Mass
Unknown
Launch date (UTC)
1965-10-15 (60 years ago)
Launch vehicle
Unknown
Launch site
Air Force Eastern Test Range (AFETR)
Object type
Payload
Rocket body
Debris
Shape & HBR
Unknown shape, 0.2 m
Radar Cross Section
Small (<0.1 m²)

Expand to show TLE details & history
Last TLE update: 5 hours ago

TLE from 5 hours ago
0 TITAN 3C TRANSTAGE DEB
1 01722U 65082CD  25349.93958672  .00000929  00000-0  16821-3 0  9996
2 01722  32.4194 317.6789 0027513 305.0598  54.7473 14.63759092172136
Epoch: 2025-12-15T22:33Z
TLE epoch observation values (Epoch: 2025-12-15T22:33:00.292Z)
Latitude
-0.00003°
Longitude
-105.40331°
Altitude
668.568 km
Speed
7.531 km/s
True Right ascension
21h 10m 42s
True Declination
0° 00' 00"
Sunlit
Object was in daylight at epoch
Visualization orbit readout
Latitude
Unknown
Longitude
Unknown
Altitude
Unknown
Speed
Unknown
Apparent Right ascension
Unknown
Apparent Declination
Unknown
Sunlit
N/A
Visualization observer readout
Local Sidereal Time
02:11:27
Azimuth
Unknown
Elevation
Unknown
Doppler factor
Unknown
Orbital elements
Apogee altitude
704.049 km
Perigee altitude
665.185 km
Semi-major axis
7,062.754 km
Eccentricity
0.00275
Inclination
32.4194°
RAAN
317.6789°
Arg. of periapsis
305.0598°
True anomaly
55.00527°
Mean anomaly
54.7473°
Eccentric anomaly
54.87623°
Mean motion
3.65664 °/min
Orbital period
98.45 mins
BSTAR
0.00016821

Documentation

Showing up to 5 results
|